Time,TemperatureF,DewpointF,PressureIn,WindDirection,WindDirectionDegrees,WindSpeedMPH,WindSpeedGustMPH,Humidity,HourlyPrecipIn,Conditions,Clouds,dailyrainin,SolarRadiationWatts/m^2,SoftwareType,DateUTC
2013-01-25 00:03:00,17.5,9.1,30.15,SSW,207,4.0,6.0,69,0.00,,,0.00,0,Wunderground v.1.15,2013-01-25 06:03:00,
2013-01-25 00:08:00,17.2,8.8,30.15,SSW,203,4.0,7.0,69,0.00,,,0.00,0,Wunderground v.1.15,2013-01-25 06:08:00,
2013-01-25 00:13:00,17.1,9.0,30.15,SSW,202,7.0,7.0,70,0.00,,,0.00,0,Wunderground v.1.15,2013-01-25 06:13:00,
2013-01-25 00:18:00,17.1,9.3,30.15,SSW,202,3.0,8.0,71,0.00,,,0.00,0,Wunderground v.1.15,2013-01-25 06:18:00,
2013-01-25 00:23:00,17.2,9.4,30.14,SSW,202,7.0,8.0,71,0.00,,,0.00,0,Wunderground v.1.15,2013-01-25 06:23:00,
2013-01-25 00:28:00,17.6,9.8,30.15,SSW,209,6.0,8.0,71,0.00,,,0.00,0,Wunderground v.1.15,2013-01-25 06:28:00,
2013-01-25 00:33:00,17.8,10.0,30.15,SSW,213,6.0,7.0,71,0.00,,,0.00,0,Wunderground v.1.15,2013-01-25 06:33:00,
2013-01-25 00:38:00,17.9,10.1,30.15,SSW,213,4.0,7.0,71,0.00,,,0.00,0,Wunderground v.1.15,2013-01-25 06:38:00,
2013-01-25 00:43:00,18.1,10.0,30.15,SW,229,8.0,9.0,70,0.00,,,0.00,0,Wunderground v.1.15,2013-01-25 06:43:00,
2013-01-25 00:48:00,18.4,10.2,30.15,SW,221,7.0,9.0,70,0.00,,,0.00,0,Wunderground v.1.15,2013-01-25 06:48:00,
2013-01-25 00:53:00,18.6,10.4,30.15,SW,224,6.0,9.0,70,0.00,,,0.00,0,Wunderground v.1.15,2013-01-25 06:53:00,
2013-01-25 00:58:00,18.6,10.4,30.15,SW,226,5.0,10.0,70,0.00,,,0.00,0,Wunderground v.1.15,2013-01-25 06:58:00,
2013-01-25 01:03:00,18.6,10.4,30.14,SSW,213,5.0,9.0,70,0.00,,,0.00,0,Wunderground v.1.15,2013-01-25 07:03:00,
2013-01-25 01:08:00,18.6,10.4,30.14,SW,223,4.0,9.0,70,0.00,,,0.00,0,Wunderground v.1.15,2013-01-25 07:08:00,
2013-01-25 01:13:00,18.6,10.4,30.14,SW,220,6.0,7.0,70,0.00,,,0.00,0,Wunderground v.1.15,2013-01-25 07:13:00,
2013-01-25 01:18:00,18.5,10.7,30.14,SW,222,7.0,8.0,71,0.00,,,0.00,0,Wunderground v.1.15,2013-01-25 07:18:00,
2013-01-25 01:23:00,18.6,10.8,30.14,SW,222,7.0,7.0,71,0.00,,,0.00,0,Wunderground v.1.15,2013-01-25 07:23:00,
2013-01-25 01:28:00,18.6,10.8,30.14,SW,221,4.0,7.0,71,0.00,,,0.00,0,Wunderground v.1.15,2013-01-25 07:28:00,
2013-01-25 01:33:00,18.7,10.9,30.14,SW,220,4.0,6.0,71,0.00,,,0.00,0,Wunderground v.1.15,2013-01-25 07:33:00,
2013-01-25 01:38:00,18.7,11.2,30.13,SW,220,5.0,7.0,72,0.00,,,0.00,0,Wunderground v.1.15,2013-01-25 07:38:00,
2013-01-25 01:43:00,18.8,11.3,30.14,SW,222,3.0,6.0,72,0.00,,,0.00,0,Wunderground v.1.15,2013-01-25 07:43:00,
2013-01-25 01:48:00,18.7,11.2,30.13,SW,222,4.0,6.0,72,0.00,,,0.00,0,Wunderground v.1.15,2013-01-25 07:48:00,
2013-01-25 01:53:00,18.4,11.2,30.14,SW,222,4.0,6.0,73,0.00,,,0.00,0,Wunderground v.1.15,2013-01-25 07:53:00,
2013-01-25 01:58:00,18.5,11.3,30.14,SW,221,4.0,6.0,73,0.00,,,0.00,0,Wunderground v.1.15,2013-01-25 07:58:00,
2013-01-25 02:03:00,18.4,11.2,30.13,SW,221,3.0,5.0,73,0.00,,,0.00,0,Wunderground v.1.15,2013-01-25 08:03:00,
2013-01-25 02:08:00,18.0,11.1,30.13,SW,221,2.0,5.0,74,0.00,,,0.00,0,Wunderground v.1.15,2013-01-25 08:08:00,
2013-01-25 02:13:00,17.3,10.4,30.13,SW,221,2.0,3.0,74,0.00,,,0.00,0,Wunderground v.1.15,2013-01-25 08:13:00,
2013-01-25 02:18:00,16.8,10.2,30.14,SW,222,2.0,3.0,75,0.00,,,0.00,0,Wunderground v.1.15,2013-01-25 08:18:00,
2013-01-25 02:23:00,16.4,9.9,30.14,SW,221,3.0,4.0,75,0.00,,,0.00,0,Wunderground v.1.15,2013-01-25 08:23:00,
2013-01-25 02:28:00,16.8,10.8,30.14,SW,222,2.0,5.0,77,0.00,,,0.00,0,Wunderground v.1.15,2013-01-25 08:28:00,
2013-01-25 02:33:00,17.0,11.0,30.14,SW,222,1.0,3.0,77,0.00,,,0.00,0,Wunderground v.1.15,2013-01-25 08:33:00,
2013-01-25 02:38:00,16.7,10.7,30.14,SW,222,0.0,3.0,77,0.00,,,0.00,0,Wunderground v.1.15,2013-01-25 08:38:00,
2013-01-25 02:43:00,16.4,10.4,30.14,SW,222,1.0,2.0,77,0.00,,,0.00,0,Wunderground v.1.15,2013-01-25 08:43:00,
2013-01-25 02:47:00,16.3,10.6,30.14,SW,222,1.0,3.0,78,0.00,,,0.00,0,Wunderground v.1.15,2013-01-25 08:47:00,
2013-01-25 02:52:00,16.1,10.4,30.14,SW,222,2.0,3.0,78,0.00,,,0.00,0,Wunderground v.1.15,2013-01-25 08:52:00,
2013-01-25 02:57:00,15.7,10.1,30.14,SW,222,2.0,4.0,78,0.00,,,0.00,0,Wunderground v.1.15,2013-01-25 08:57:00,
2013-01-25 03:02:00,15.3,10.0,30.14,SW,222,4.0,4.0,79,0.00,,,0.00,0,Wunderground v.1.15,2013-01-25 09:02:00,
2013-01-25 03:07:00,15.1,9.8,30.14,SW,222,3.0,4.0,79,0.00,,,0.00,0,Wunderground v.1.15,2013-01-25 09:07:00,
2013-01-25 03:12:00,14.8,9.7,30.14,SW,222,2.0,3.0,80,0.00,,,0.00,0,Wunderground v.1.15,2013-01-25 09:12:00,
2013-01-25 03:17:00,14.5,9.5,30.14,SW,222,2.0,3.0,80,0.00,,,0.00,0,Wunderground v.1.15,2013-01-25 09:17:00,
2013-01-25 03:22:00,14.0,9.0,30.14,SW,222,2.0,4.0,80,0.00,,,0.00,0,Wunderground v.1.15,2013-01-25 09:22:00,
2013-01-25 03:27:00,13.7,8.7,30.14,SW,222,1.0,4.0,80,0.00,,,0.00,0,Wunderground v.1.15,2013-01-25 09:27:00,
2013-01-25 03:32:00,13.6,8.9,30.14,SW,222,0.0,2.0,81,0.00,,,0.00,0,Wunderground v.1.15,2013-01-25 09:32:00,
2013-01-25 03:37:00,13.5,8.8,30.14,SW,222,2.0,2.0,81,0.00,,,0.00,0,Wunderground v.1.15,2013-01-25 09:37:00,
2013-01-25 03:42:00,13.5,9.0,30.14,SW,222,1.0,3.0,82,0.00,,,0.00,0,Wunderground v.1.15,2013-01-25 09:42:00,
2013-01-25 03:47:00,14.0,9.8,30.13,SW,222,2.0,4.0,83,0.00,,,0.00,0,Wunderground v.1.15,2013-01-25 09:47:00,
2013-01-25 03:52:00,14.6,10.4,30.14,SW,222,0.0,2.0,83,0.00,,,0.00,0,Wunderground v.1.15,2013-01-25 09:52:00,
2013-01-25 03:57:00,14.6,10.4,30.14,SW,222,1.0,3.0,83,0.00,,,0.00,0,Wunderground v.1.15,2013-01-25 09:57:00,
2013-01-25 04:02:00,14.1,9.6,30.14,SW,222,3.0,3.0,82,0.00,,,0.00,0,Wunderground v.1.15,2013-01-25 10:02:00,
2013-01-25 04:07:00,13.5,9.0,30.14,SW,222,3.0,4.0,82,0.00,,,0.00,0,Wunderground v.1.15,2013-01-25 10:07:00,
2013-01-25 04:12:00,13.1,8.6,30.14,SW,222,1.0,4.0,82,0.00,,,0.00,0,Wunderground v.1.15,2013-01-25 10:12:00,
2013-01-25 04:17:00,12.8,8.6,30.14,SW,222,1.0,4.0,83,0.00,,,0.00,0,Wunderground v.1.15,2013-01-25 10:17:00,
2013-01-25 04:22:00,12.7,8.5,30.13,SW,225,3.0,5.0,83,0.00,,,0.00,0,Wunderground v.1.15,2013-01-25 10:22:00,
2013-01-25 04:27:00,14.0,10.3,30.14,WNW,283,6.0,9.0,85,0.00,,,0.00,0,Wunderground v.1.15,2013-01-25 10:27:00,
2013-01-25 04:32:00,17.8,14.3,30.14,WNW,284,8.0,9.0,86,0.00,,,0.00,0,Wunderground v.1.15,2013-01-25 10:32:00,
2013-01-25 04:37:00,20.9,17.6,30.14,WNW,283,7.0,10.0,87,0.00,,,0.00,0,Wunderground v.1.15,2013-01-25 10:37:00,
2013-01-25 04:42:00,23.9,20.6,30.14,WNW,292,6.0,11.0,87,0.00,,,0.00,0,Wunderground v.1.15,2013-01-25 10:42:00,
2013-01-25 04:47:00,25.1,21.5,30.14,WNW,288,6.0,11.0,86,0.00,,,0.00,0,Wunderground v.1.15,2013-01-25 10:47:00,
2013-01-25 04:52:00,25.9,21.7,30.14,WNW,288,11.0,11.0,84,0.00,,,0.00,0,Wunderground v.1.15,2013-01-25 10:52:00,
2013-01-25 04:57:00,26.8,22.3,30.14,WNW,294,11.0,15.0,83,0.00,,,0.00,0,Wunderground v.1.15,2013-01-25 10:57:00,
2013-01-25 05:02:00,27.5,22.7,30.14,West,271,8.0,12.0,82,0.00,,,0.00,0,Wunderground v.1.15,2013-01-25 11:02:00,
2013-01-25 05:07:00,27.9,22.5,30.14,West,281,6.0,14.0,80,0.00,,,0.00,0,Wunderground v.1.15,2013-01-25 11:07:00,
2013-01-25 05:12:00,28.0,22.3,30.14,WNW,283,7.0,13.0,79,0.00,,,0.00,0,Wunderground v.1.15,2013-01-25 11:12:00,
2013-01-25 05:17:00,27.8,22.1,30.14,West,281,7.0,14.0,79,0.00,,,0.00,0,Wunderground v.1.15,2013-01-25 11:17:00,
2013-01-25 05:22:00,27.6,21.9,30.14,WNW,286,8.0,11.0,79,0.00,,,0.00,0,Wunderground v.1.15,2013-01-25 11:22:00,
2013-01-25 05:27:00,27.4,21.7,30.14,West,281,8.0,11.0,79,0.00,,,0.00,0,Wunderground v.1.15,2013-01-25 11:27:00,
2013-01-25 05:32:00,27.2,21.5,30.14,West,279,5.0,10.0,79,0.00,,,0.00,0,Wunderground v.1.15,2013-01-25 11:32:00,
2013-01-25 05:37:00,27.2,21.5,30.14,West,279,4.0,10.0,79,0.00,,,0.00,0,Wunderground v.1.15,2013-01-25 11:37:00,
2013-01-25 05:42:00,27.1,21.5,30.14,WNW,288,7.0,8.0,79,0.00,,,0.00,0,Wunderground v.1.15,2013-01-25 11:42:00,
2013-01-25 05:47:00,27.6,22.2,30.14,WNW,298,8.0,11.0,80,0.00,,,0.00,0,Wunderground v.1.15,2013-01-25 11:47:00,
2013-01-25 05:52:00,27.7,22.0,30.14,WNW,288,8.0,13.0,79,0.00,,,0.00,0,Wunderground v.1.15,2013-01-25 11:52:00,
2013-01-25 05:57:00,27.7,22.0,30.14,WNW,285,8.0,13.0,79,0.00,,,0.00,0,Wunderground v.1.15,2013-01-25 11:57:00,
2013-01-25 06:02:00,27.8,22.1,30.14,WNW,290,8.0,12.0,79,0.00,,,0.00,0,Wunderground v.1.15,2013-01-25 12:02:00,
2013-01-25 06:07:00,28.0,22.3,30.14,WNW,294,8.0,12.0,79,0.00,,,0.00,0,Wunderground v.1.15,2013-01-25 12:07:00,
2013-01-25 06:12:00,28.2,22.5,30.14,West,276,7.0,10.0,79,0.00,,,0.00,0,Wunderground v.1.15,2013-01-25 12:12:00,
2013-01-25 06:17:00,28.3,22.3,30.14,West,271,8.0,12.0,78,0.00,,,0.00,0,Wunderground v.1.15,2013-01-25 12:17:00,
2013-01-25 06:22:00,28.1,22.1,30.14,West,265,6.0,14.0,78,0.00,,,0.00,0,Wunderground v.1.15,2013-01-25 12:22:00,
2013-01-25 06:27:00,28.2,22.2,30.14,West,266,5.0,14.0,78,0.00,,,0.00,0,Wunderground v.1.15,2013-01-25 12:27:00,
2013-01-25 06:32:00,28.1,22.1,30.14,WSW,256,9.0,10.0,78,0.00,,,0.00,0,Wunderground v.1.15,2013-01-25 12:32:00,
2013-01-25 06:37:00,27.9,21.9,30.14,West,279,7.0,13.0,78,0.00,,,0.00,0,Wunderground v.1.15,2013-01-25 12:37:00,
2013-01-25 06:42:00,27.7,21.7,30.14,West,269,6.0,10.0,78,0.00,,,0.00,0,Wunderground v.1.15,2013-01-25 12:42:00,
2013-01-25 06:47:00,27.6,21.6,30.14,West,279,5.0,12.0,78,0.00,,,0.00,0,Wunderground v.1.15,2013-01-25 12:47:00,
2013-01-25 06:52:00,27.7,22.0,30.14,WSW,254,7.0,7.0,79,0.00,,,0.00,0,Wunderground v.1.15,2013-01-25 12:52:00,
2013-01-25 06:57:00,27.6,21.9,30.15,WNW,292,6.0,9.0,79,0.00,,,0.00,0,Wunderground v.1.15,2013-01-25 12:57:00,
2013-01-25 07:02:00,27.3,21.3,30.14,West,275,4.0,7.0,78,0.00,,,0.00,0,Wunderground v.1.15,2013-01-25 13:02:00,
2013-01-25 07:07:00,26.9,21.3,30.15,WNW,287,4.0,7.0,79,0.00,,,0.00,0,Wunderground v.1.15,2013-01-25 13:07:00,
2013-01-25 07:12:00,26.9,21.3,30.15,West,275,5.0,7.0,79,0.00,,,0.00,0,Wunderground v.1.15,2013-01-25 13:12:00,
2013-01-25 07:17:00,26.9,21.6,30.14,West,268,2.0,7.0,80,0.00,,,0.00,0,Wunderground v.1.15,2013-01-25 13:17:00,
2013-01-25 07:22:00,26.7,21.1,30.15,WSW,258,2.0,7.0,79,0.00,,,0.00,0,Wunderground v.1.15,2013-01-25 13:22:00,
2013-01-25 07:27:00,26.2,20.6,30.14,WSW,258,2.0,7.0,79,0.00,,,0.00,0,Wunderground v.1.15,2013-01-25 13:27:00,
2013-01-25 07:32:00,25.5,19.6,30.15,WSW,244,1.0,3.0,78,0.00,,,0.00,0,Wunderground v.1.15,2013-01-25 13:32:00,
2013-01-25 07:37:00,24.3,18.1,30.15,WSW,244,1.0,3.0,77,0.00,,,0.00,0,Wunderground v.1.15,2013-01-25 13:37:00,
2013-01-25 07:42:00,22.9,17.1,30.15,WSW,242,1.0,3.0,78,0.00,,,0.00,0,Wunderground v.1.15,2013-01-25 13:42:00,
2013-01-25 07:47:00,21.2,15.4,30.15,WSW,242,1.0,3.0,78,0.00,,,0.00,0,Wunderground v.1.15,2013-01-25 13:47:00,
2013-01-25 07:52:00,20.1,14.6,30.16,WSW,242,2.0,3.0,79,0.00,,,0.00,0,Wunderground v.1.15,2013-01-25 13:52:00,
2013-01-25 07:57:00,19.4,14.2,30.16,WSW,242,2.0,3.0,80,0.00,,,0.00,7,Wunderground v.1.15,2013-01-25 13:57:00,
2013-01-25 08:02:00,19.4,14.8,30.16,WSW,242,0.0,2.0,82,0.00,,,0.00,11,Wunderground v.1.15,2013-01-25 14:02:00,
2013-01-25 08:07:00,18.4,13.8,30.15,WSW,242,0.0,2.0,82,0.00,,,0.00,12,Wunderground v.1.15,2013-01-25 14:07:00,
2013-01-25 08:12:00,18.2,13.9,30.15,West,276,3.0,4.0,83,0.00,,,0.00,16,Wunderground v.1.15,2013-01-25 14:12:00,
2013-01-25 08:17:00,19.0,15.0,30.15,West,280,5.0,5.0,84,0.00,,,0.00,19,Wunderground v.1.15,2013-01-25 14:17:00,
2013-01-25 08:22:00,19.6,15.8,30.15,West,277,3.0,5.0,85,0.00,,,0.00,32,Wunderground v.1.15,2013-01-25 14:22:00,
2013-01-25 08:27:00,20.3,16.5,30.15,West,261,2.0,5.0,85,0.00,,,0.00,46,Wunderground v.1.15,2013-01-25 14:27:00,
2013-01-25 08:32:00,21.3,17.8,30.15,WSW,249,1.0,4.0,86,0.00,,,0.00,58,Wunderground v.1.15,2013-01-25 14:32:00,
2013-01-25 08:37:00,22.9,19.3,30.16,WNW,284,2.0,4.0,86,0.00,,,0.00,72,Wunderground v.1.15,2013-01-25 14:37:00,
2013-01-25 08:42:00,24.1,20.5,30.16,West,261,3.0,4.0,86,0.00,,,0.00,86,Wunderground v.1.15,2013-01-25 14:42:00,
2013-01-25 08:47:00,25.5,21.9,30.16,West,281,2.0,6.0,86,0.00,,,0.00,102,Wunderground v.1.15,2013-01-25 14:47:00,
2013-01-25 08:52:00,27.0,23.1,30.16,WNW,282,7.0,8.0,85,0.00,,,0.00,113,Wunderground v.1.15,2013-01-25 14:52:00,
2013-01-25 08:57:00,28.6,24.1,30.16,WNW,284,5.0,10.0,83,0.00,,,0.00,132,Wunderground v.1.15,2013-01-25 14:57:00,
2013-01-25 09:02:00,29.5,24.7,30.17,West,266,4.0,7.0,82,0.00,,,0.00,144,Wunderground v.1.15,2013-01-25 15:02:00,
2013-01-25 09:07:00,30.2,24.8,30.17,West,266,4.0,8.0,80,0.00,,,0.00,158,Wunderground v.1.15,2013-01-25 15:07:00,
2013-01-25 09:12:00,30.9,24.8,30.17,West,267,4.0,8.0,78,0.00,,,0.00,169,Wunderground v.1.15,2013-01-25 15:12:00,
2013-01-25 09:17:00,31.5,25.1,30.17,West,263,5.0,8.0,77,0.00,,,0.00,185,Wunderground v.1.15,2013-01-25 15:17:00,
2013-01-25 09:22:00,32.2,25.5,30.17,WNW,282,4.0,6.0,76,0.00,,,0.00,200,Wunderground v.1.15,2013-01-25 15:22:00,
2013-01-25 09:27:00,33.0,25.9,30.17,WNW,296,7.0,7.0,75,0.00,,,0.00,218,Wunderground v.1.15,2013-01-25 15:27:00,
2013-01-25 09:32:00,33.9,26.5,30.17,WNW,286,7.0,8.0,74,0.00,,,0.00,234,Wunderground v.1.15,2013-01-25 15:32:00,
2013-01-25 09:36:00,34.5,26.4,30.17,WNW,287,5.0,9.0,72,0.00,,,0.00,253,Wunderground v.1.15,2013-01-25 15:36:00,
2013-01-25 09:41:00,35.2,26.4,30.17,WNW,287,5.0,10.0,70,0.00,,,0.00,267,Wunderground v.1.15,2013-01-25 15:41:00,
2013-01-25 09:46:00,35.8,26.3,30.17,West,281,9.0,12.0,68,0.00,,,0.00,279,Wunderground v.1.15,2013-01-25 15:46:00,
2013-01-25 09:51:00,36.4,26.5,30.18,West,280,6.0,10.0,67,0.00,,,0.00,290,Wunderground v.1.15,2013-01-25 15:51:00,
2013-01-25 09:56:00,37.2,26.5,30.18,WNW,283,5.0,11.0,65,0.00,,,0.00,302,Wunderground v.1.15,2013-01-25 15:56:00,
2013-01-25 10:01:00,37.9,26.0,30.18,WNW,282,5.0,13.0,62,0.00,,,0.00,315,Wunderground v.1.15,2013-01-25 16:01:00,
2013-01-25 10:06:00,38.4,26.1,30.18,West,278,6.0,13.0,61,0.00,,,0.00,325,Wunderground v.1.15,2013-01-25 16:06:00,
2013-01-25 10:11:00,39.3,26.6,30.18,WNW,283,7.0,8.0,60,0.00,,,0.00,336,Wunderground v.1.15,2013-01-25 16:11:00,
2013-01-25 10:16:00,40.0,26.4,30.18,NW,314,5.0,11.0,58,0.00,,,0.00,346,Wunderground v.1.15,2013-01-25 16:16:00,
2013-01-25 10:21:00,40.9,26.4,30.18,NNW,338,8.0,14.0,56,0.00,,,0.00,353,Wunderground v.1.15,2013-01-25 16:21:00,
2013-01-25 10:26:00,42.0,25.6,30.19,WNW,302,11.0,14.0,52,0.00,,,0.00,364,Wunderground v.1.15,2013-01-25 16:26:00,
2013-01-25 10:31:00,41.9,25.1,30.19,NNW,327,9.0,13.0,51,0.00,,,0.00,376,Wunderground v.1.15,2013-01-25 16:31:00,
2013-01-25 10:36:00,42.5,25.6,30.19,NW,319,5.0,13.0,51,0.00,,,0.00,385,Wunderground v.1.15,2013-01-25 16:36:00,
2013-01-25 10:41:00,42.8,25.9,30.19,WNW,302,7.0,13.0,51,0.00,,,0.00,396,Wunderground v.1.15,2013-01-25 16:41:00,
2013-01-25 10:46:00,43.1,24.7,30.19,WNW,302,13.0,14.0,48,0.00,,,0.00,406,Wunderground v.1.15,2013-01-25 16:46:00,
2013-01-25 10:51:00,43.0,24.6,30.19,NNW,329,9.0,14.0,48,0.00,,,0.00,413,Wunderground v.1.15,2013-01-25 16:51:00,
2013-01-25 10:56:00,43.6,25.2,30.19,WNW,298,7.0,14.0,48,0.00,,,0.00,422,Wunderground v.1.15,2013-01-25 16:56:00,
2013-01-25 11:01:00,43.3,24.4,30.20,NW,317,10.0,11.0,47,0.00,,,0.00,431,Wunderground v.1.15,2013-01-25 17:01:00,
2013-01-25 11:06:00,43.9,24.9,30.20,NNW,344,8.0,12.0,47,0.00,,,0.00,439,Wunderground v.1.15,2013-01-25 17:06:00,
2013-01-25 11:11:00,44.4,24.9,30.20,NNW,331,5.0,11.0,46,0.00,,,0.00,448,Wunderground v.1.15,2013-01-25 17:11:00,
2013-01-25 11:16:00,44.4,24.4,30.20,WNW,284,10.0,13.0,45,0.00,,,0.00,455,Wunderground v.1.15,2013-01-25 17:16:00,
2013-01-25 11:21:00,44.9,24.3,30.20,NW,323,8.0,11.0,44,0.00,,,0.00,462,Wunderground v.1.15,2013-01-25 17:21:00,
2013-01-25 11:26:00,45.0,23.8,30.19,NNW,348,11.0,15.0,43,0.00,,,0.00,468,Wunderground v.1.15,2013-01-25 17:26:00,
2013-01-25 11:31:00,45.0,24.4,30.19,NNW,340,6.0,10.0,44,0.00,,,0.00,476,Wunderground v.1.15,2013-01-25 17:31:00,
2013-01-25 11:36:00,45.3,24.1,30.19,NNW,327,7.0,14.0,43,0.00,,,0.00,482,Wunderground v.1.15,2013-01-25 17:36:00,
2013-01-25 11:41:00,45.4,24.2,30.18,NNW,342,8.0,10.0,43,0.00,,,0.00,487,Wunderground v.1.15,2013-01-25 17:41:00,
2013-01-25 11:46:00,45.4,24.2,30.18,NNW,334,8.0,12.0,43,0.00,,,0.00,492,Wunderground v.1.15,2013-01-25 17:46:00,
2013-01-25 11:51:00,45.5,24.3,30.18,NNW,339,7.0,12.0,43,0.00,,,0.00,499,Wunderground v.1.15,2013-01-25 17:51:00,
2013-01-25 11:56:00,45.6,24.4,30.17,NW,316,8.0,12.0,43,0.00,,,0.00,504,Wunderground v.1.15,2013-01-25 17:56:00,
2013-01-25 12:01:00,45.7,23.9,30.17,North,360,5.0,9.0,42,0.00,,,0.00,506,Wunderground v.1.15,2013-01-25 18:01:00,
2013-01-25 12:06:00,46.2,24.3,30.17,North,11,5.0,10.0,42,0.00,,,0.00,513,Wunderground v.1.15,2013-01-25 18:06:00,
2013-01-25 12:11:00,46.4,23.9,30.16,North,5,7.0,8.0,41,0.00,,,0.00,517,Wunderground v.1.15,2013-01-25 18:11:00,
2013-01-25 12:16:00,46.5,24.0,30.16,NNW,346,4.0,13.0,41,0.00,,,0.00,520,Wunderground v.1.15,2013-01-25 18:16:00,
2013-01-25 12:21:00,47.2,24.1,30.16,North,5,4.0,7.0,40,0.00,,,0.00,522,Wunderground v.1.15,2013-01-25 18:21:00,
2013-01-25 12:26:00,47.2,23.5,30.16,NNW,342,9.0,11.0,39,0.00,,,0.00,526,Wunderground v.1.15,2013-01-25 18:26:00,
2013-01-25 12:31:00,46.9,23.8,30.16,NNW,348,4.0,6.0,40,0.00,,,0.00,519,Wunderground v.1.15,2013-01-25 18:31:00,
2013-01-25 12:36:00,47.0,23.9,30.16,NW,304,6.0,11.0,40,0.00,,,0.00,526,Wunderground v.1.15,2013-01-25 18:36:00,
2013-01-25 12:41:00,46.8,23.7,30.15,NNW,346,7.0,9.0,40,0.00,,,0.00,527,Wunderground v.1.15,2013-01-25 18:41:00,
2013-01-25 12:46:00,46.7,23.6,30.15,WNW,285,4.0,9.0,40,0.00,,,0.00,531,Wunderground v.1.15,2013-01-25 18:46:00,
2013-01-25 12:51:00,47.2,24.1,30.15,NNW,341,6.0,9.0,40,0.00,,,0.00,520,Wunderground v.1.15,2013-01-25 18:51:00,
2013-01-25 12:56:00,47.6,23.8,30.15,WNW,283,8.0,13.0,39,0.00,,,0.00,519,Wunderground v.1.15,2013-01-25 18:56:00,
2013-01-25 13:01:00,47.4,24.3,30.15,NW,325,9.0,10.0,40,0.00,,,0.00,517,Wunderground v.1.15,2013-01-25 19:01:00,
2013-01-25 13:06:00,48.0,24.2,30.14,West,275,7.0,10.0,39,0.00,,,0.00,522,Wunderground v.1.15,2013-01-25 19:06:00,
2013-01-25 13:11:00,47.6,22.6,30.14,WNW,296,4.0,8.0,37,0.00,,,0.00,519,Wunderground v.1.15,2013-01-25 19:11:00,
2013-01-25 13:16:00,47.9,23.5,30.13,NW,321,5.0,9.0,38,0.00,,,0.00,526,Wunderground v.1.15,2013-01-25 19:16:00,
2013-01-25 13:21:00,48.2,23.1,30.13,WSW,257,7.0,9.0,37,0.00,,,0.00,519,Wunderground v.1.15,2013-01-25 19:21:00,
2013-01-25 13:26:00,48.6,23.5,30.13,WNW,296,5.0,11.0,37,0.00,,,0.00,522,Wunderground v.1.15,2013-01-25 19:26:00,
2013-01-25 13:31:00,48.7,23.6,30.13,WNW,299,3.0,7.0,37,0.00,,,0.00,519,Wunderground v.1.15,2013-01-25 19:31:00,
2013-01-25 13:36:00,48.9,23.7,30.13,West,267,9.0,9.0,37,0.00,,,0.00,506,Wunderground v.1.15,2013-01-25 19:36:00,
2013-01-25 13:41:00,48.5,23.4,30.13,NW,325,6.0,10.0,37,0.00,,,0.00,510,Wunderground v.1.15,2013-01-25 19:41:00,
2013-01-25 13:46:00,48.7,23.6,30.12,NW,319,7.0,10.0,37,0.00,,,0.00,506,Wunderground v.1.15,2013-01-25 19:46:00,
2013-01-25 13:51:00,49.2,24.0,30.12,North,11,6.0,10.0,37,0.00,,,0.00,501,Wunderground v.1.15,2013-01-25 19:51:00,
2013-01-25 13:56:00,49.6,23.7,30.12,NNW,348,7.0,11.0,36,0.00,,,0.00,501,Wunderground v.1.15,2013-01-25 19:56:00,
2013-01-25 14:01:00,49.0,23.8,30.11,NW,320,12.0,12.0,37,0.00,,,0.00,497,Wunderground v.1.15,2013-01-25 20:01:00,
2013-01-25 14:06:00,49.2,24.0,30.11,North,355,5.0,12.0,37,0.00,,,0.00,487,Wunderground v.1.15,2013-01-25 20:06:00,
2013-01-25 14:11:00,48.9,23.7,30.11,West,277,6.0,10.0,37,0.00,,,0.00,478,Wunderground v.1.15,2013-01-25 20:11:00,
2013-01-25 14:16:00,49.2,24.6,30.11,NNW,328,9.0,10.0,38,0.00,,,0.00,455,Wunderground v.1.15,2013-01-25 20:16:00,
2013-01-25 14:21:00,49.9,24.6,30.10,North,360,7.0,9.0,37,0.00,,,0.00,473,Wunderground v.1.15,2013-01-25 20:21:00,
2013-01-25 14:26:00,50.4,23.7,30.10,NW,326,5.0,11.0,35,0.00,,,0.00,469,Wunderground v.1.15,2013-01-25 20:26:00,
2013-01-25 14:31:00,50.3,24.3,30.10,NW,324,3.0,6.0,36,0.00,,,0.00,466,Wunderground v.1.15,2013-01-25 20:31:00,
2013-01-25 14:36:00,49.9,24.0,30.10,WNW,298,8.0,12.0,36,0.00,,,0.00,443,Wunderground v.1.15,2013-01-25 20:36:00,
2013-01-25 14:41:00,50.2,24.2,30.10,NNW,338,4.0,7.0,36,0.00,,,0.00,392,Wunderground v.1.15,2013-01-25 20:41:00,
2013-01-25 14:46:00,50.4,24.4,30.10,NW,326,5.0,12.0,36,0.00,,,0.00,439,Wunderground v.1.15,2013-01-25 20:46:00,
2013-01-25 14:51:00,50.4,24.4,30.10,NW,325,6.0,7.0,36,0.00,,,0.00,431,Wunderground v.1.15,2013-01-25 20:51:00,
2013-01-25 14:56:00,50.3,24.3,30.09,NNW,334,4.0,8.0,36,0.00,,,0.00,396,Wunderground v.1.15,2013-01-25 20:56:00,
2013-01-25 15:01:00,50.3,23.7,30.09,North,5,2.0,5.0,35,0.00,,,0.00,278,Wunderground v.1.15,2013-01-25 21:01:00,
2013-01-25 15:06:00,49.9,24.0,30.09,NW,319,5.0,11.0,36,0.00,,,0.00,297,Wunderground v.1.15,2013-01-25 21:06:00,
2013-01-25 15:11:00,49.9,24.0,30.10,NW,316,2.0,6.0,36,0.00,,,0.00,285,Wunderground v.1.15,2013-01-25 21:11:00,
2013-01-25 15:16:00,49.6,23.7,30.10,WNW,302,4.0,9.0,36,0.00,,,0.00,339,Wunderground v.1.15,2013-01-25 21:16:00,
2013-01-25 15:21:00,49.7,23.8,30.10,WNW,295,2.0,4.0,36,0.00,,,0.00,272,Wunderground v.1.15,2013-01-25 21:21:00,
2013-01-25 15:26:00,50.6,23.9,30.10,WNW,295,0.0,4.0,35,0.00,,,0.00,255,Wunderground v.1.15,2013-01-25 21:26:00,
2013-01-25 15:31:00,50.9,24.2,30.10,NW,324,2.0,3.0,35,0.00,,,0.00,336,Wunderground v.1.15,2013-01-25 21:31:00,
2013-01-25 15:36:00,51.3,24.5,30.10,NW,324,2.0,3.0,35,0.00,,,0.00,327,Wunderground v.1.15,2013-01-25 21:36:00,
2013-01-25 15:41:00,51.5,24.0,30.10,NNW,338,6.0,7.0,34,0.00,,,0.00,327,Wunderground v.1.15,2013-01-25 21:41:00,
2013-01-25 15:46:00,51.3,23.8,30.10,NNE,27,7.0,11.0,34,0.00,,,0.00,323,Wunderground v.1.15,2013-01-25 21:46:00,
2013-01-25 15:51:00,49.5,24.3,30.10,NNE,33,9.0,10.0,37,0.00,,,0.00,309,Wunderground v.1.15,2013-01-25 21:51:00,
2013-01-25 15:56:00,48.5,24.0,30.10,NE,40,8.0,11.0,38,0.00,,,0.00,255,Wunderground v.1.15,2013-01-25 21:56:00,
2013-01-25 16:01:00,48.1,24.3,30.10,NE,44,9.0,11.0,39,0.00,,,0.00,267,Wunderground v.1.15,2013-01-25 22:01:00,
2013-01-25 16:06:00,48.1,24.3,30.10,NNE,33,8.0,12.0,39,0.00,,,0.00,281,Wunderground v.1.15,2013-01-25 22:06:00,
2013-01-25 16:11:00,48.2,24.4,30.10,NNE,32,10.0,10.0,39,0.00,,,0.00,272,Wunderground v.1.15,2013-01-25 22:11:00,
2013-01-25 16:16:00,47.5,24.3,30.10,NE,46,10.0,13.0,40,0.00,,,0.00,258,Wunderground v.1.15,2013-01-25 22:16:00,
2013-01-25 16:21:00,46.8,24.3,30.10,NNE,32,11.0,13.0,41,0.00,,,0.00,207,Wunderground v.1.15,2013-01-25 22:21:00,
2013-01-25 16:26:00,46.4,23.9,30.10,NE,50,7.0,13.0,41,0.00,,,0.00,193,Wunderground v.1.15,2013-01-25 22:26:00,
2013-01-25 16:31:00,46.4,24.5,30.10,NE,49,5.0,9.0,42,0.00,,,0.00,199,Wunderground v.1.15,2013-01-25 22:31:00,
2013-01-25 16:36:00,46.3,24.4,30.10,NNE,31,7.0,11.0,42,0.00,,,0.00,174,Wunderground v.1.15,2013-01-25 22:36:00,
2013-01-25 16:41:00,45.7,24.5,30.10,NNE,29,7.0,10.0,43,0.00,,,0.00,156,Wunderground v.1.15,2013-01-25 22:41:00,
2013-01-25 16:46:00,45.2,24.0,30.10,NE,52,7.0,11.0,43,0.00,,,0.00,139,Wunderground v.1.15,2013-01-25 22:46:00,
2013-01-25 16:51:00,44.9,24.3,30.10,NE,44,8.0,10.0,44,0.00,,,0.00,120,Wunderground v.1.15,2013-01-25 22:51:00,
2013-01-25 16:56:00,44.4,23.8,30.10,NE,44,7.0,13.0,44,0.00,,,0.00,86,Wunderground v.1.15,2013-01-25 22:56:00,
2013-01-25 17:01:00,43.9,23.9,30.10,NE,42,6.0,10.0,45,0.00,,,0.00,42,Wunderground v.1.15,2013-01-25 23:01:00,
2013-01-25 17:06:00,43.3,23.9,30.10,NE,48,8.0,10.0,46,0.00,,,0.00,39,Wunderground v.1.15,2013-01-25 23:06:00,
2013-01-25 17:11:00,42.6,23.8,30.10,NE,47,7.0,9.0,47,0.00,,,0.00,33,Wunderground v.1.15,2013-01-25 23:11:00,
2013-01-25 17:16:00,42.0,23.7,30.10,NE,45,6.0,9.0,48,0.00,,,0.00,28,Wunderground v.1.15,2013-01-25 23:16:00,
2013-01-25 17:21:00,41.3,23.6,30.11,NE,42,4.0,7.0,49,0.00,,,0.00,26,Wunderground v.1.15,2013-01-25 23:21:00,
2013-01-25 17:26:00,40.6,23.4,30.10,NNE,29,6.0,8.0,50,0.00,,,0.00,21,Wunderground v.1.15,2013-01-25 23:26:00,
2013-01-25 17:31:00,40.0,23.3,30.10,NE,45,6.0,7.0,51,0.00,,,0.00,16,Wunderground v.1.15,2013-01-25 23:31:00,
2013-01-25 17:36:00,39.3,23.1,30.10,NE,42,3.0,8.0,52,0.00,,,0.00,11,Wunderground v.1.15,2013-01-25 23:36:00,
2013-01-25 17:41:00,38.9,23.2,30.11,NE,38,5.0,5.0,53,0.00,,,0.00,0,Wunderground v.1.15,2013-01-25 23:41:00,
2013-01-25 17:45:00,38.2,22.6,30.11,NE,36,4.0,6.0,53,0.00,,,0.00,0,Wunderground v.1.15,2013-01-25 23:45:00,
2013-01-25 17:50:00,37.3,22.2,30.11,NE,34,4.0,5.0,54,0.00,,,0.00,0,Wunderground v.1.15,2013-01-25 23:50:00,
2013-01-25 17:55:00,36.3,21.7,30.11,NE,36,5.0,6.0,55,0.00,,,0.00,0,Wunderground v.1.15,2013-01-25 23:55:00,
2013-01-25 18:00:00,35.5,21.8,30.11,NE,39,3.0,4.0,57,0.00,,,0.00,0,Wunderground v.1.15,2013-01-26 00:00:00,
2013-01-25 18:05:00,34.8,21.1,30.11,NE,49,1.0,5.0,57,0.00,,,0.00,0,Wunderground v.1.15,2013-01-26 00:05:00,
2013-01-25 18:10:00,34.1,21.7,30.11,NNE,32,4.0,5.0,60,0.00,,,0.00,0,Wunderground v.1.15,2013-01-26 00:10:00,
2013-01-25 18:15:00,33.7,21.7,30.12,NE,39,3.0,5.0,61,0.00,,,0.00,0,Wunderground v.1.15,2013-01-26 00:15:00,
2013-01-25 18:20:00,33.1,21.5,30.12,NE,36,4.0,6.0,62,0.00,,,0.00,0,Wunderground v.1.15,2013-01-26 00:20:00,
2013-01-25 18:25:00,32.9,22.0,30.12,NE,55,4.0,6.0,64,0.00,,,0.00,0,Wunderground v.1.15,2013-01-26 00:25:00,
2013-01-25 18:30:00,33.0,22.5,30.12,NE,40,4.0,5.0,65,0.00,,,0.00,0,Wunderground v.1.15,2013-01-26 00:30:00,
2013-01-25 18:35:00,32.9,22.4,30.12,NE,43,3.0,5.0,65,0.00,,,0.00,0,Wunderground v.1.15,2013-01-26 00:35:00,
2013-01-25 18:40:00,32.5,22.0,30.12,NE,43,1.0,3.0,65,0.00,,,0.00,0,Wunderground v.1.15,2013-01-26 00:40:00,
2013-01-25 18:45:00,32.3,22.2,30.12,NE,53,3.0,4.0,66,0.00,,,0.00,0,Wunderground v.1.15,2013-01-26 00:45:00,
2013-01-25 18:50:00,32.3,22.2,30.12,NE,55,3.0,4.0,66,0.00,,,0.00,0,Wunderground v.1.15,2013-01-26 00:50:00,
2013-01-25 18:55:00,32.1,22.0,30.12,NE,56,4.0,6.0,66,0.00,,,0.00,0,Wunderground v.1.15,2013-01-26 00:55:00,
2013-01-25 19:00:00,31.5,21.4,30.12,ENE,61,3.0,4.0,66,0.00,,,0.00,0,Wunderground v.1.15,2013-01-26 01:00:00,
2013-01-25 19:05:00,30.9,21.6,30.12,ENE,61,1.0,4.0,68,0.00,,,0.00,0,Wunderground v.1.15,2013-01-26 01:05:00,
2013-01-25 19:10:00,30.6,21.3,30.12,ENE,59,0.0,1.0,68,0.00,,,0.00,0,Wunderground v.1.15,2013-01-26 01:10:00,
2013-01-25 19:15:00,30.5,21.5,30.12,ENE,59,1.0,3.0,69,0.00,,,0.00,0,Wunderground v.1.15,2013-01-26 01:15:00,
2013-01-25 19:20:00,30.3,21.3,30.12,ENE,59,1.0,2.0,69,0.00,,,0.00,0,Wunderground v.1.15,2013-01-26 01:20:00,
2013-01-25 19:25:00,30.3,21.7,30.12,ENE,59,0.0,4.0,70,0.00,,,0.00,0,Wunderground v.1.15,2013-01-26 01:25:00,
2013-01-25 19:30:00,30.1,21.5,30.12,ENE,60,2.0,2.0,70,0.00,,,0.00,0,Wunderground v.1.15,2013-01-26 01:30:00,
2013-01-25 19:35:00,29.8,21.2,30.12,ENE,65,2.0,4.0,70,0.00,,,0.00,0,Wunderground v.1.15,2013-01-26 01:35:00,
2013-01-25 19:40:00,29.4,21.2,30.12,ENE,65,2.0,2.0,71,0.00,,,0.00,0,Wunderground v.1.15,2013-01-26 01:40:00,
2013-01-25 19:45:00,29.4,21.5,30.12,ENE,78,2.0,5.0,72,0.00,,,0.00,0,Wunderground v.1.15,2013-01-26 01:45:00,
2013-01-25 19:50:00,29.3,21.4,30.12,East,82,3.0,3.0,72,0.00,,,0.00,0,Wunderground v.1.15,2013-01-26 01:50:00,
2013-01-25 19:55:00,28.5,20.6,30.13,ESE,114,2.0,7.0,72,0.00,,,0.00,0,Wunderground v.1.15,2013-01-26 01:55:00,
2013-01-25 20:00:00,27.6,20.1,30.13,ESE,117,2.0,3.0,73,0.00,,,0.00,0,Wunderground v.1.15,2013-01-26 02:00:00,
2013-01-25 20:05:00,27.4,20.5,30.13,ESE,105,1.0,5.0,75,0.00,,,0.00,0,Wunderground v.1.15,2013-01-26 02:05:00,
2013-01-25 20:10:00,27.4,20.8,30.13,ESE,103,3.0,3.0,76,0.00,,,0.00,0,Wunderground v.1.15,2013-01-26 02:10:00,
2013-01-25 20:15:00,27.8,21.2,30.13,East,83,3.0,3.0,76,0.00,,,0.00,0,Wunderground v.1.15,2013-01-26 02:15:00,
2013-01-25 20:20:00,28.1,21.5,30.14,ENE,65,2.0,2.0,76,0.00,,,0.00,0,Wunderground v.1.15,2013-01-26 02:20:00,
2013-01-25 20:25:00,28.0,21.1,30.14,ENE,62,3.0,5.0,75,0.00,,,0.00,0,Wunderground v.1.15,2013-01-26 02:25:00,
2013-01-25 20:30:00,27.9,21.3,30.14,ENE,63,2.0,3.0,76,0.00,,,0.00,0,Wunderground v.1.15,2013-01-26 02:30:00,
2013-01-25 20:35:00,27.8,21.2,30.14,ENE,63,1.0,4.0,76,0.00,,,0.00,0,Wunderground v.1.15,2013-01-26 02:35:00,
2013-01-25 20:40:00,27.6,21.0,30.13,ENE,64,1.0,2.0,76,0.00,,,0.00,0,Wunderground v.1.15,2013-01-26 02:40:00,
2013-01-25 20:45:00,27.4,20.8,30.13,ENE,76,2.0,4.0,76,0.00,,,0.00,0,Wunderground v.1.15,2013-01-26 02:45:00,
2013-01-25 20:50:00,27.3,21.0,30.13,ENE,78,1.0,2.0,77,0.00,,,0.00,0,Wunderground v.1.15,2013-01-26 02:50:00,
2013-01-25 20:55:00,27.1,20.8,30.13,ENE,78,0.0,2.0,77,0.00,,,0.00,0,Wunderground v.1.15,2013-01-26 02:55:00,
2013-01-25 21:00:00,26.9,20.7,30.13,ENE,76,3.0,4.0,77,0.00,,,0.00,0,Wunderground v.1.15,2013-01-26 03:00:00,
2013-01-25 21:05:00,26.9,21.0,30.13,ENE,74,2.0,4.0,78,0.00,,,0.00,0,Wunderground v.1.15,2013-01-26 03:05:00,
2013-01-25 21:10:00,26.9,21.3,30.13,ENE,59,3.0,5.0,79,0.00,,,0.00,0,Wunderground v.1.15,2013-01-26 03:10:00,
2013-01-25 21:15:00,27.0,21.4,30.13,ENE,74,4.0,5.0,79,0.00,,,0.00,0,Wunderground v.1.15,2013-01-26 03:15:00,
2013-01-25 21:20:00,26.9,21.3,30.13,ENE,69,5.0,5.0,79,0.00,,,0.00,0,Wunderground v.1.15,2013-01-26 03:20:00,
2013-01-25 21:25:00,26.8,21.2,30.13,ENE,61,4.0,7.0,79,0.00,,,0.00,0,Wunderground v.1.15,2013-01-26 03:25:00,
2013-01-25 21:30:00,26.5,20.9,30.13,NE,55,3.0,4.0,79,0.00,,,0.00,0,Wunderground v.1.15,2013-01-26 03:30:00,
2013-01-25 21:35:00,26.1,20.5,30.13,NE,45,3.0,6.0,79,0.00,,,0.00,0,Wunderground v.1.15,2013-01-26 03:35:00,
2013-01-25 21:40:00,25.9,20.6,30.14,NE,53,5.0,6.0,80,0.00,,,0.00,0,Wunderground v.1.15,2013-01-26 03:40:00,
2013-01-25 21:45:00,25.7,20.7,30.14,NE,51,4.0,8.0,81,0.00,,,0.00,0,Wunderground v.1.15,2013-01-26 03:45:00,
2013-01-25 21:50:00,25.5,20.5,30.14,NE,51,3.0,4.0,81,0.00,,,0.00,0,Wunderground v.1.15,2013-01-26 03:50:00,
2013-01-25 21:55:00,25.3,20.3,30.14,NE,50,2.0,4.0,81,0.00,,,0.00,0,Wunderground v.1.15,2013-01-26 03:55:00,
2013-01-25 22:00:00,25.2,20.5,30.13,ENE,58,3.0,3.0,82,0.00,,,0.00,0,Wunderground v.1.15,2013-01-26 04:00:00,
2013-01-25 22:05:00,25.1,20.4,30.14,ENE,59,4.0,4.0,82,0.00,,,0.00,0,Wunderground v.1.15,2013-01-26 04:05:00,
2013-01-25 22:10:00,25.1,20.4,30.14,ENE,59,3.0,4.0,82,0.00,,,0.00,0,Wunderground v.1.15,2013-01-26 04:10:00,
2013-01-25 22:15:00,24.9,20.2,30.14,ENE,59,3.0,5.0,82,0.00,,,0.00,0,Wunderground v.1.15,2013-01-26 04:15:00,
2013-01-25 22:20:00,24.8,20.4,30.14,ENE,59,3.0,3.0,83,0.00,,,0.00,0,Wunderground v.1.15,2013-01-26 04:20:00,
2013-01-25 22:25:00,24.7,20.3,30.13,ENE,57,2.0,5.0,83,0.00,,,0.00,0,Wunderground v.1.15,2013-01-26 04:25:00,
2013-01-25 22:30:00,24.7,20.3,30.13,ENE,69,3.0,3.0,83,0.00,,,0.00,0,Wunderground v.1.15,2013-01-26 04:30:00,
2013-01-25 22:35:00,24.7,20.3,30.13,ENE,78,3.0,5.0,83,0.00,,,0.00,0,Wunderground v.1.15,2013-01-26 04:35:00,
2013-01-25 22:40:00,24.4,20.0,30.13,ENE,78,2.0,3.0,83,0.00,,,0.00,0,Wunderground v.1.15,2013-01-26 04:40:00,
2013-01-25 22:45:00,24.1,19.7,30.13,ENE,78,2.0,3.0,83,0.00,,,0.00,0,Wunderground v.1.15,2013-01-26 04:45:00,
2013-01-25 22:50:00,24.0,19.9,30.13,East,84,3.0,3.0,84,0.00,,,0.00,0,Wunderground v.1.15,2013-01-26 04:50:00,
2013-01-25 22:55:00,23.9,19.8,30.13,East,85,3.0,6.0,84,0.00,,,0.00,0,Wunderground v.1.15,2013-01-26 04:55:00,
2013-01-25 23:00:00,23.8,19.7,30.13,East,84,0.0,3.0,84,0.00,,,0.00,0,Wunderground v.1.15,2013-01-26 05:00:00,
2013-01-25 23:02:00,23.8,19.9,30.13,East,85,3.0,5.0,85,0.00,,,0.00,0,Wunderground v.1.15,2013-01-26 05:02:00,
2013-01-25 23:03:00,23.9,20.0,30.13,East,82,1.0,5.0,85,0.00,,,0.00,0,Wunderground v.1.15,2013-01-26 05:03:00,
2013-01-25 23:08:00,24.0,20.1,30.13,East,84,5.0,6.0,85,0.00,,,0.00,0,Wunderground v.1.15,2013-01-26 05:08:00,
2013-01-25 23:13:00,23.9,20.0,30.13,East,86,3.0,6.0,85,0.00,,,0.00,0,Wunderground v.1.15,2013-01-26 05:13:00,
2013-01-25 23:18:00,23.8,19.9,30.14,East,90,3.0,6.0,85,0.00,,,0.00,0,Wunderground v.1.15,2013-01-26 05:18:00,
2013-01-25 23:23:00,24.0,20.4,30.14,East,86,5.0,6.0,86,0.00,,,0.00,0,Wunderground v.1.15,2013-01-26 05:23:00,
2013-01-25 23:28:00,24.2,20.3,30.14,East,91,6.0,6.0,85,0.00,,,0.00,0,Wunderground v.1.15,2013-01-26 05:28:00,
2013-01-25 23:33:00,23.6,19.8,30.14,East,88,6.0,6.0,85,0.00,,,0.00,0,Wunderground v.1.15,2013-01-26 05:33:00,
2013-01-25 23:38:00,23.2,19.4,30.14,East,88,3.0,6.0,85,0.00,,,0.00,0,Wunderground v.1.15,2013-01-26 05:38:00,
2013-01-25 23:43:00,23.3,19.7,30.14,East,88,2.0,4.0,86,0.00,,,0.00,0,Wunderground v.1.15,2013-01-26 05:43:00,
2013-01-25 23:48:00,23.0,19.2,30.14,East,86,5.0,5.0,85,0.00,,,0.00,0,Wunderground v.1.15,2013-01-26 05:48:00,
2013-01-25 23:53:00,22.5,18.7,30.14,East,84,3.0,6.0,85,0.00,,,0.00,0,Wunderground v.1.15,2013-01-26 05:53:00,
2013-01-25 23:58:00,22.4,18.8,30.14,East,84,2.0,6.0,86,0.00,,,0.00,0,Wunderground v.1.15,2013-01-26 05:58:00,